This is the latest recevied weather packets stored in our database for station/object VK2EHQ. If no packets are shown the sender has not sent any weather packets the latest 10 day(s).
| Time | Temp. | Humidity | Pressure | Rain* | Wind** | Luminosity | Snow |
|---|---|---|---|---|---|---|---|
| 1788077396 | 16.11° C | 69% | 1030 hPa | 0 mm | - | - | - |
| 1788076796 | 16.67° C | 69% | 1030 hPa | 0 mm | - | - | - |
| 1788076196 | 17.22° C | 69% | 1030 hPa | 0 mm | - | - | - |
| 1788075596 | 17.78° C | 69% | 1029.9 hPa | 0 mm | - | - | - |
| 1788074996 | 17.78° C | 68% | 1029.8 hPa | 0 mm | - | - | - |
| 1788074396 | 18.33° C | 67% | 1029.7 hPa | 0 mm | - | - | - |
| 1788073796 | 18.33° C | 66% | 1029.7 hPa | 0 mm | - | - | - |
| 1788073196 | 18.89° C | 65% | 1029.6 hPa | 0 mm | - | - | - |
| 1788072596 | 19.44° C | 64% | 1029.6 hPa | 0 mm | - | - | - |
| 1788071995 | 20° C | 63% | 1029.6 hPa | 0 mm | - | - | - |
| 1788071395 | 20.56° C | 62% | 1029.5 hPa | 0 mm | - | - | - |
| 1788070795 | 20.56° C | 60% | 1029.5 hPa | 0 mm | - | - | - |
| 1788070196 | 21.11° C | 58% | 1029.5 hPa | 0 mm | - | - | - |
| 1788069595 | 20.56° C | 47% | 1029.5 hPa | 0 mm | - | - | - |
| 1788068995 | 20.56° C | 47% | 1029.5 hPa | 0 mm | - | - | - |
| 1788068395 | 20.56° C | 48% | 1029.6 hPa | 0 mm | - | - | - |
| 1788067795 | 20.56° C | 47% | 1029.6 hPa | 0 mm | - | - | - |
| 1788067195 | 20.56° C | 47% | 1029.6 hPa | 0 mm | - | - | - |
| 1788066595 | 20.56° C | 48% | 1029.6 hPa | 0 mm | - | - | - |
| 1788065995 | 21.11° C | 51% | 1029.6 hPa | 0 mm | - | - | - |
| 1788065395 | 21.11° C | 52% | 1029.6 hPa | 0 mm | - | - | - |
| 1788064795 | 20.56° C | 52% | 1029.7 hPa | 0 mm | - | - | - |
| 1788064195 | 20° C | 52% | 1029.8 hPa | 0 mm | - | - | - |
| 1788063595 | 20° C | 50% | 1029.8 hPa | 0 mm | - | - | - |
| 1788062995 | 20° C | 53% | 1029.8 hPa | 0 mm | - | - | - |
* Rain latest hour (hover to see other rain measurements)
** Current wind speed in m/s (hover to see current wind gust speed)